Powrót do katalogu

STARLINK-34298

AktywnyŁącznośćVLEO
NORAD 64269·PAYLOAD·🇺🇸 United States

Wystrzelony Jun 4, 2025 z Vandenberg Space Force Base

Loading…

Następne Przeloty (najbliższe 24 godziny)

TLE

ŚwieżeSource: CelesTrak SupGP

Epoka: Sep 15, 2026, 02:49 UTC

1 64269C 25120P   26258.11784722  .00040069  00000+0  11836-2 0  2589
2 64269  53.1595 311.0740 0001231  89.8227 117.0174 15.34376236    18

Śledź STARLINK-34298 w czasie rzeczywistym z AllMySat

Download on the App Store